Regional Weather Roundup
Issued by NWS Binghamton, NY

Home | Current Version | Previous Version | Text Only | Print | Product List | Glossary On
Versions: 1 2 3 4 5 6 7 8 9 10 11 12 13 14 15 16 17 18 19 20 21 22 23 24 25 26 27 28 29 30 31 32 33 34 35 36 37 38 39 40 41 42 43 44 45 46 47 48 49 50
000
ASUS41 KBGM 220210
RWRBGM
RWRBGM
BINGHAMTON REGIONAL WEATHER ROUNDUP
NATIONAL WEATHER SERVICE BINGHAMTON NY
1000 PM EDT TUE OCT 21 2014

Note: "fair" indicates few or no clouds below 12,000 feet with no
significant weather and/or obstructions to visibility.

* = Station(s) that does not report precipitation, such as rain,
snow, etc, also no thunder or fog.

!NYZ009-015>018-022>025-036-037-044>046-055>057-062-220300
...CENTRAL NEW YORK...

CITY           SKY/WX    TMP DP  RH WIND       PRES   REMARKS
BINGHAMTON     CLOUDY    49  47  93 N6        29.95R
CORTLAND       CLOUDY    50  50 100 CALM      29.99R
DANSVILLE      CLOUDY    49  47  93 NW12      30.02R
ELMIRA         CLOUDY    51  49  92 E3        29.98R
ITHACA         MOCLDY    48  48 100 CALM      29.99R
HAMILTON       CLOUDY    52  48  87 N3        29.99R
MONTICELLO     CLOUDY    48  48 100 NE3       29.95R
NORWICH        CLOUDY    48  48 100 CALM      29.98R
ONEONTA        CLOUDY    48  46  93 E3        29.97R
PENN YAN       CLOUDY    50  48  93 N6        30.00R FOG
ROME           CLOUDY    51  47  86 CALM      30.01R
SIDNEY         CLOUDY    52  52 100 CALM      29.97R FOG
SYRACUSE       LGT RAIN  52  50  93 N5        30.01R FOG
$$

!PAZ038>040-043-044-047-048-072-220300
...NORTHEAST PENNSYLVANIA...

CITY           SKY/WX    TMP DP  RH WIND       PRES   REMARKS
HAZLETON       CLOUDY    50  46  87 CALM      29.95R
SCRANTON       MOCLDY    52  49  89 E5        29.92S
TOWANDA*       MOCLDY    52  52 100 CALM      29.96S
$$
&&
KEY
WCI = WIND CHILL INDEX
VSB = VISIBILITY
HX  = HEAT INDEX
$$



USA.gov is the U.S. government's official web portal to all federal, state and local government web resources and services.